Le nostre stazioni meteo in Italia

Pubblicità
Il mio iltempo24.it
Lamezia Terme, Italia (16362): Temperatura & dewpoint: 24.03.2020 12:00:00 - 30.03.2020 12:00:00 (CEST)Lamezia Terme, Italia (16362): velocità del vento: 24.03.2020 12:00:00 - 30.03.2020 12:00:00 (CEST)Lamezia Terme, Italia (16362): direzione del vento: 24.03.2020 12:00:00 - 30.03.2020 12:00:00 (CEST)Lamezia Terme, Italia (16362): reduced air pressure: 24.03.2020 12:00:00 - 30.03.2020 12:00:00 (CEST)Lamezia Terme, Italia (16362): visibility: 24.03.2020 12:00:00 - 30.03.2020 12:00:00 (CEST)Lamezia Terme, Italia (16362): precipitazioni: 24.03.2020 12:00:00 - 30.03.2020 12:00:00 (CEST)
Data & Tempo tt [°C] td [°C] ff [km/h] ff [kn] dd ppp [hPa] vv [km] rr [mm]
30.03.2020 12:00:00 - - - - - - - -
30.03.2020 11:00:00 15,3 9,3 8 4 SO 1012,4 10 0,0
30.03.2020 10:00:00 15,0 10,0 8 4 E - 10 -
30.03.2020 09:00:00 11,0 10,0 5 3 ESE - 10 -
30.03.2020 08:00:00 8,0 7,8 8 4 ESE 1011,7 20 -
30.03.2020 07:00:00 7,0 7,0 8 4 ENE - 10 -
30.03.2020 06:00:00 6,0 6,0 8 4 ENE - 10 -
30.03.2020 05:00:00 6,3 6,3 8 4 ENE 1011,4 10 0,0
30.03.2020 04:00:00 6,0 6,0 8 4 ENE - 10 -
30.03.2020 03:00:00 7,0 7,0 9 5 ENE - 10 -
30.03.2020 02:00:00 6,6 6,6 11 6 E 1012,3 10 -
30.03.2020 01:00:00 7,0 7,0 8 4 E - 10 -
30.03.2020 00:00:00 8,0 8,0 8 4 ENE - 10 -
29.03.2020 23:00:00 8,7 8,3 8 4 ENE 1013,0 10 0,0
29.03.2020 22:00:00 11,0 10,0 5 3 ESE - 10 -
29.03.2020 21:00:00 11,0 9,0 5 3 ESE - 10 -
29.03.2020 20:00:00 12,8 9,7 2 1 S 1013,0 10 -
29.03.2020 19:00:00 14,0 10,0 11 6 OSO - 10 -
29.03.2020 18:00:00 15,0 10,0 15 8 O - 10 -
29.03.2020 17:00:00 15,2 10,0 15 8 OSO 1012,2 10 0,0
29.03.2020 16:00:00 16,0 9,0 15 8 OSO - 10 -
29.03.2020 15:00:00 16,0 11,0 21 11 OSO - 10 -
29.03.2020 14:00:00 15,5 10,9 18 10 O 1013,2 10 -
29.03.2020 13:00:00 15,0 10,0 16 9 OSO - 10 -
29.03.2020 12:00:00 16,0 10,0 11 6 SO - 10 -
29.03.2020 11:00:00 14,7 10,0 11 6 SO 1014,6 10 0,0
29.03.2020 10:00:00 13,0 10,0 2 1 - - 10 -
29.03.2020 09:00:00 10,0 10,0 5 3 ENE - 10 -
29.03.2020 08:00:00 7,1 7,1 9 5 E 1014,5 10 -
29.03.2020 07:00:00 4,0 4,0 11 6 E - 10 -
29.03.2020 06:00:00 5,0 5,0 8 4 ENE - 10 -
29.03.2020 05:00:00 4,3 4,3 8 4 ENE 1014,6 10 0,0
29.03.2020 04:00:00 5,0 5,0 8 4 E - 10 -
29.03.2020 03:00:00 5,0 5,0 5 3 ENE - 10 -
29.03.2020 02:00:00 5,6 5,6 5 3 ENE 1014,9 10 -
29.03.2020 01:00:00 6,0 6,0 9 5 E - 10 -
29.03.2020 00:00:00 7,0 7,0 8 4 ENE - 10 -
28.03.2020 23:00:00 8,0 7,4 8 4 ENE 1015,3 15 0,0
28.03.2020 22:00:00 10,0 8,0 4 2 - - 10 -
28.03.2020 21:00:00 11,0 8,0 8 4 NO - 10 -
28.03.2020 20:00:00 12,2 7,5 15 8 O 1013,5 10 -
28.03.2020 19:00:00 14,0 8,0 13 7 SO - 10 -
28.03.2020 18:00:00 15,0 9,0 18 10 OSO - 10 -
28.03.2020 17:00:00 14,9 9,5 16 9 OSO 1012,9 10 0,0
28.03.2020 16:00:00 15,0 10,0 21 11 OSO - 10 -
28.03.2020 15:00:00 15,0 10,0 21 11 OSO - 10 -
28.03.2020 14:00:00 15,0 9,0 18 10 OSO - 10 -
28.03.2020 13:00:00 15,0 10,0 15 8 SO - 10 -
28.03.2020 12:00:00 15,0 9,0 13 7 OSO - 10 -
28.03.2020 11:00:00 - - - - - - - -
28.03.2020 10:00:00 13,0 9,0 8 4 S - 10 -
28.03.2020 09:00:00 10,0 9,0 5 3 E - 10 -
28.03.2020 08:00:00 6,0 6,0 13 7 E - 10 -
28.03.2020 07:00:00 5,0 5,0 13 7 ENE - 10 -
28.03.2020 06:00:00 4,0 4,0 13 7 ENE - 10 -
28.03.2020 05:00:00 5,3 5,0 11 6 E 1012,4 10 0,0
28.03.2020 04:00:00 5,0 5,0 13 7 E - 10 -
28.03.2020 03:00:00 6,0 5,0 9 5 ENE - 10 -
28.03.2020 02:00:00 6,4 5,4 8 4 ENE 1012,4 10 -
28.03.2020 01:00:00 9,0 6,0 13 7 NE - 10 -
28.03.2020 00:00:00 9,0 8,0 13 7 NE - 10 -
27.03.2020 23:00:00 8,9 7,3 11 6 ENE 1011,8 10 0,0
27.03.2020 22:00:00 11,0 6,0 9 5 NE - 10 -
27.03.2020 21:00:00 11,0 7,0 13 7 NE - 10 -
27.03.2020 20:00:00 12,0 8,0 18 10 NE - 10 -
27.03.2020 19:00:00 13,0 7,0 18 10 ENE - 10 -
27.03.2020 18:00:00 14,0 6,0 22 12 E - 10 -
27.03.2020 17:00:00 16,0 6,0 18 10 E - 10 -
27.03.2020 16:00:00 16,0 7,0 9 5 E - 10 -
27.03.2020 15:00:00 16,0 6,0 4 2 - - 10 -
27.03.2020 14:00:00 16,1 5,6 5 3 O 1010,4 10 -
27.03.2020 13:00:00 15,0 7,0 5 3 - - 10 -
27.03.2020 12:00:00 - - - - - - - -
27.03.2020 11:00:00 12,4 9,4 9 5 ENE 1010,8 10 0,0
27.03.2020 10:00:00 10,0 9,0 13 7 E - 10 -
27.03.2020 09:00:00 8,0 8,0 8 4 E - 10 -
27.03.2020 08:00:00 7,7 7,7 11 6 ENE 1009,5 10 -
27.03.2020 07:00:00 7,0 7,0 13 7 E - 6 -
27.03.2020 06:00:00 8,0 7,0 9 5 NE - 6 -
27.03.2020 05:00:00 7,8 7,4 8 4 S 1008,3 5 0,0
27.03.2020 04:00:00 8,0 8,0 16 9 S - 5 -
27.03.2020 03:00:00 9,0 9,0 18 10 SSO - 5 -
27.03.2020 02:00:00 8,1 7,9 9 5 S 1007,7 5 -
27.03.2020 01:00:00 8,0 8,0 8 4 SE - 5 -
27.03.2020 00:00:00 8,0 8,0 9 5 S - 7 -
26.03.2020 23:00:00 9,4 8,8 18 10 SSO 1007,1 7 0,0
26.03.2020 22:00:00 10,0 9,0 15 8 SO - 7 -
26.03.2020 21:00:00 10,0 9,0 11 6 SO - 7 -
26.03.2020 20:00:00 10,0 9,3 13 7 OSO 1004,6 10 -
26.03.2020 19:00:00 10,0 10,0 5 3 O - 7 -
26.03.2020 18:00:00 10,0 10,0 16 9 O - 7 -
26.03.2020 17:00:00 10,9 9,6 13 7 OSO 1003,9 7 0,0
26.03.2020 16:00:00 10,0 10,0 16 9 SSO - 6 -
26.03.2020 15:00:00 12,0 11,0 15 8 OSO - 5 -
26.03.2020 14:00:00 11,1 10,9 13 7 SO 1003,4 5 -
26.03.2020 13:00:00 12,0 11,0 15 8 OSO - 6 -
26.03.2020 12:00:00 11,0 11,0 16 9 SSO - 6 -
26.03.2020 11:00:00 12,3 11,8 11 6 S 1001,9 5 0,0
26.03.2020 10:00:00 11,0 11,0 13 7 S - 3,0 -
26.03.2020 09:00:00 13,0 12,0 11 6 SO - 10 -
26.03.2020 08:00:00 14,3 13,4 22 12 E 998,0 6 -
26.03.2020 07:00:00 14,0 13,0 26 14 E - 5 -
26.03.2020 06:00:00 13,0 13,0 44 24 ENE - 5 -
26.03.2020 05:00:00 12,6 11,9 37 20 E 997,5 3,0 0,0
26.03.2020 04:00:00 13,0 11,0 34 18 E - 5 -
26.03.2020 03:00:00 12,0 10,0 39 21 ENE - 5 -
26.03.2020 02:00:00 11,6 10,4 46 25 ENE 999,7 5 -
26.03.2020 01:00:00 12,0 11,0 50 27 ENE - 3,0 -
26.03.2020 00:00:00 12,0 11,0 31 17 ENE - 6 -
25.03.2020 23:00:00 12,4 10,0 48 26 ENE 1002,3 8 0,0
25.03.2020 22:00:00 12,0 10,0 42 23 ENE - 8 -
25.03.2020 21:00:00 12,0 9,0 42 23 ENE - 10 -
25.03.2020 20:00:00 12,7 8,6 41 22 ENE 1001,6 10 -
25.03.2020 19:00:00 - - - - - - - -
25.03.2020 18:00:00 12,0 8,0 34 18 ENE - 10 -
25.03.2020 17:00:00 12,5 6,7 34 18 ENE 1004,2 10 0,0
25.03.2020 16:00:00 11,0 6,0 54 29 ENE - 10 -
25.03.2020 15:00:00 10,0 6,0 54 29 ENE - 6 -
25.03.2020 14:00:00 9,0 5,0 44 24 ENE - 10 -
25.03.2020 13:00:00 9,0 5,0 24 13 E - 8 -
25.03.2020 12:00:00 8,0 5,0 28 15 ENE - 8 -
25.03.2020 11:00:00 6,5 4,6 37 20 ENE 1009,9 6 0,0
25.03.2020 10:00:00 6,0 4,0 41 22 ENE - 5 -
25.03.2020 09:00:00 6,0 4,0 44 24 ENE - 6 -
25.03.2020 08:00:00 6,2 3,6 41 22 ENE 1012,2 6 -
25.03.2020 07:00:00 7,0 2,0 35 19 ENE - 10 -
25.03.2020 06:00:00 6,0 3,0 29 16 ENE - 10 -
25.03.2020 05:00:00 6,0 3,4 28 15 ENE 1013,7 10 0,0
25.03.2020 04:00:00 7,0 3,0 26 14 ENE - 10 -
25.03.2020 03:00:00 7,0 3,0 18 10 ENE - 10 -
25.03.2020 02:00:00 6,8 2,5 21 11 ENE 1016,1 10 -
25.03.2020 01:00:00 7,0 2,0 15 8 ENE - 10 -
25.03.2020 00:00:00 7,0 2,0 16 9 ENE - 10 -
24.03.2020 23:00:00 6,8 1,7 15 8 ENE 1017,6 10 0,0
24.03.2020 22:00:00 7,0 2,0 18 10 ENE - 10 -
24.03.2020 21:00:00 7,0 2,0 18 10 NE - 10 -
24.03.2020 20:00:00 7,4 1,9 16 9 NE 1017,9 10 -
24.03.2020 19:00:00 8,0 3,0 16 9 NE - 10 -
24.03.2020 18:00:00 9,0 4,0 13 7 ENE - 10 -
24.03.2020 17:00:00 9,3 4,4 13 7 E 1017,7 10 0,0
24.03.2020 16:00:00 10,0 3,0 16 9 NNE - 10 -
24.03.2020 15:00:00 10,0 2,0 11 6 ENE - 10 -
24.03.2020 14:00:00 10,7 3,6 9 5 ENE 1018,3 10 -
24.03.2020 13:00:00 9,0 3,0 18 10 ENE - 10 -
24.03.2020 12:00:00 - - - - - - - -

tt = Temperatura
td = dewpoint
ff = velocità del vento
dd = direzione del vento
ppp = reduced air pressure
vv = visibility
rr = precipitazioni

Stazioni seguenti

WeatherPro
AMSI
MeteoEarth